.
WxDataArchive / Data Records for 2013-08-30
2013-08-29 August 2013 2013-08-31

Data Records for Friday, 30 August 2013

Time	Temp	Chill	HIndex	Humid	Dewpt	 Wind 	HiWind	WindDir	Rain 	Barom 
-----	----	-----	------	-----	-----	------	------	-------	-----	----- 
00:00	71.8	71.8	71.8	84	66.7	0	0	---	0.00	29.973 
00:05	71.6	71.6	71.6	84	66.5	0	0	---	0.00	29.973 
00:10	71.5	71.5	71.5	84	66.4	0	0	---	0.00	29.973 
00:15	71.3	71.3	71.3	84	66.2	0	0	---	0.00	29.972 
00:20	71.1	71.1	71.1	85	66.4	0	0	---	0.00	29.972 
00:25	71.1	71.1	71.1	85	66.4	0	0	---	0.00	29.972 
00:30	70.9	70.9	70.9	86	66.5	0	0	---	0.00	29.973 
00:35	70.8	70.8	70.8	86	66.4	0	0	---	0.00	29.973 
00:40	70.6	70.6	70.6	86	66.2	0	0	---	0.00	29.973 
00:45	70.4	70.4	70.4	86	66.0	0	0	---	0.00	29.972 
00:50	70.3	70.3	70.3	87	66.2	0	0	---	0.00	29.972 
00:55	70.3	70.3	70.3	87	66.2	0	0	---	0.00	29.972 
01:00	70.1	70.1	70.1	87	66.0	0	0	---	0.00	29.973 
01:05	69.9	69.9	69.9	88	66.2	0	0	---	0.00	29.973 
01:10	69.8	69.8	69.8	88	66.1	0	0	---	0.00	29.973 
01:15	69.6	69.6	69.6	88	65.9	0	0	---	0.00	29.965 
01:20	69.4	69.4	69.4	88	65.7	0	0	---	0.00	29.965 
01:25	69.3	69.3	69.3	89	65.9	0	0	---	0.00	29.965 
01:30	69.3	69.3	69.3	89	65.9	0	0	---	0.00	29.973 
01:35	69.1	69.1	69.1	89	65.7	0	0	---	0.00	29.973 
01:40	68.9	68.9	68.9	89	65.5	0	0	---	0.00	29.973 
01:45	68.8	68.8	68.8	89	65.4	0	0	---	0.00	29.970 
01:50	68.8	68.8	68.8	90	65.7	0	0	---	0.00	29.970 
01:55	68.6	68.6	68.6	90	65.5	0	0	---	0.00	29.970 
02:00	68.6	68.6	68.6	90	65.5	0	0	---	0.00	29.975 
02:05	68.6	68.6	68.6	91	65.9	0	0	---	0.00	29.975 
02:10	68.4	68.4	68.4	91	65.7	0	0	---	0.00	29.975 
02:15	68.3	68.3	68.3	91	65.6	0	0	---	0.00	29.970 
02:20	68.3	68.3	68.3	91	65.6	0	0	---	0.00	29.970 
02:25	68.1	68.1	68.1	91	65.4	0	0	---	0.00	29.970 
02:30	67.9	67.9	67.9	91	65.2	0	0	---	0.00	29.964 
02:35	67.9	67.9	67.9	91	65.2	0	0	---	0.00	29.964 
02:40	67.8	67.8	67.8	92	65.4	0	0	---	0.00	29.964 
02:45	67.8	67.8	67.8	92	65.4	0	0	---	0.00	29.967 
02:50	67.8	67.8	67.8	92	65.4	0	0	---	0.00	29.967 
02:55	67.6	67.6	67.6	92	65.2	0	0	---	0.00	29.967 
03:00	67.6	67.6	67.6	92	65.2	0	0	---	0.00	29.970 
03:05	67.6	67.6	67.6	92	65.2	0	0	---	0.00	29.970 
03:10	67.4	67.4	67.4	92	65.0	0	0	---	0.00	29.970 
03:15	67.4	67.4	67.4	92	65.0	0	0	---	0.00	29.963 
03:20	67.3	67.3	67.3	92	64.9	0	0	---	0.00	29.963 
03:25	67.3	67.3	67.3	92	64.9	0	0	---	0.00	29.963 
03:30	67.1	67.1	67.1	93	65.0	0	0	---	0.00	29.966 
03:35	67.1	67.1	67.1	93	65.0	0	0	---	0.00	29.966 
03:40	66.9	66.9	66.9	93	64.8	0	0	---	0.00	29.966 
03:45	66.9	66.9	66.9	93	64.8	0	0	---	0.00	29.960 
03:50	66.8	66.8	66.8	93	64.7	0	0	---	0.00	29.960 
03:55	66.8	66.8	66.8	93	64.7	0	0	---	0.00	29.960 
04:00	66.6	66.6	66.6	93	64.5	0	0	---	0.00	29.959 
04:05	66.4	66.4	66.4	93	64.3	0	0	---	0.00	29.959 
04:10	66.4	66.4	66.4	93	64.3	0	0	---	0.00	29.959 
04:15	66.4	66.4	66.4	93	64.3	0	0	---	0.00	29.960 
04:20	66.3	66.3	66.3	93	64.2	0	0	---	0.00	29.960 
04:25	66.1	66.1	66.1	93	64.0	0	0	---	0.00	29.960 
04:30	66.0	66.0	66.0	93	63.9	0	0	---	0.00	29.960 
04:35	66.0	66.0	66.0	93	63.9	0	0	---	0.00	29.960 
04:40	66.0	66.0	66.0	94	64.2	0	0	---	0.00	29.960 
04:45	66.0	66.0	66.0	94	64.2	0	0	---	0.00	29.959 
04:50	66.0	66.0	66.0	94	64.2	0	0	---	0.00	29.959 
04:55	65.8	65.8	65.8	94	64.0	0	0	---	0.00	29.959 
05:00	65.8	65.8	65.8	94	64.0	0	0	---	0.00	29.958 
05:05	65.6	65.6	65.6	94	63.8	0	0	---	0.00	29.958 
05:10	65.5	65.5	65.5	94	63.7	0	0	---	0.00	29.958 
05:15	65.3	65.3	65.3	94	63.5	0	0	---	0.00	29.949 
05:20	65.3	65.3	65.3	94	63.5	0	0	---	0.00	29.949 
05:25	65.3	65.3	65.3	94	63.5	0	0	---	0.00	29.949 
05:30	65.3	65.3	65.3	94	63.5	0	0	---	0.00	29.950 
05:35	65.3	65.3	65.3	94	63.5	0	0	---	0.00	29.950 
05:40	65.2	65.2	65.2	94	63.4	0	0	---	0.00	29.950 
05:45	65.2	65.2	65.2	94	63.4	0	0	---	0.00	29.957 
05:50	65.2	65.2	65.2	94	63.4	0	0	---	0.00	29.957 
05:55	65.2	65.2	65.2	94	63.4	0	0	---	0.00	29.957 
06:00	65.2	65.2	65.2	94	63.4	0	0	---	0.00	29.959 
06:05	65.0	65.0	65.0	94	63.2	0	0	---	0.00	29.959 
06:10	65.0	65.0	65.0	94	63.2	0	0	---	0.00	29.959 
06:15	65.0	65.0	65.0	94	63.2	0	0	---	0.00	29.955 
06:20	64.8	64.8	64.8	94	63.0	0	0	---	0.00	29.955 
06:25	64.8	64.8	64.8	94	63.0	0	0	---	0.00	29.955 
06:30	64.7	64.7	64.7	94	62.9	0	0	---	0.00	29.950 
06:35	64.7	64.7	64.7	94	62.9	0	0	---	0.00	29.950 
06:40	64.5	64.5	64.5	95	63.0	0	0	---	0.00	29.950 
06:45	64.7	64.7	64.7	95	63.2	0	0	---	0.00	29.949 
06:50	64.7	64.7	64.7	95	63.2	0	0	---	0.00	29.949 
06:55	64.7	64.7	64.7	95	63.2	0	0	---	0.00	29.949 
07:00	64.7	64.7	64.7	95	63.2	0	0	---	0.00	29.950 
07:05	64.7	64.7	64.7	95	63.2	0	0	---	0.00	29.950 
07:10	64.5	64.5	64.5	95	63.0	0	0	---	0.00	29.950 
07:15	64.5	64.5	64.5	95	63.0	0	0	---	0.00	29.952 
07:20	64.5	64.5	64.5	95	63.0	0	0	---	0.00	29.952 
07:25	64.5	64.5	64.5	95	63.0	0	0	---	0.00	29.952 
07:30	64.7	64.7	64.7	95	63.2	0	0	---	0.00	29.950 
07:35	64.7	64.7	64.7	95	63.2	0	0	---	0.00	29.950 
07:40	64.8	64.8	64.8	95	63.3	0	0	---	0.00	29.950 
07:45	65.0	65.0	65.0	95	63.5	0	0	---	0.00	29.955 
07:50	65.2	65.2	65.2	95	63.7	0	0	---	0.00	29.955 
07:55	65.5	65.5	65.5	95	64.0	0	0	---	0.00	29.955 
08:00	66.0	66.0	66.0	95	64.5	0	0	---	0.00	29.951 
08:05	66.3	66.3	66.3	95	64.8	0	0	---	0.00	29.951 
08:10	66.8	66.8	66.8	96	65.6	0	0	---	0.00	29.951 
08:15	67.6	67.6	67.6	96	66.4	0	0	---	0.00	29.950 
08:20	67.9	67.9	67.9	95	66.4	0	0	---	0.00	29.950 
08:25	68.4	68.4	68.4	95	66.9	0	0	---	0.00	29.950 
08:30	68.8	68.8	68.8	95	67.3	0	0	---	0.00	29.946 
08:35	69.1	69.1	69.1	94	67.3	0	0	---	0.00	29.946 
08:40	69.6	69.6	69.6	94	67.8	0	0	---	0.00	29.946 
08:45	69.9	69.9	69.9	94	68.1	0	0	---	0.00	29.948 
08:50	70.3	70.3	70.3	93	68.2	0	0	---	0.00	29.948 
08:55	70.6	70.6	70.6	93	68.5	0	1	90	0.00	29.948 
09:00	71.1	71.1	71.1	92	68.7	0	1	90	0.00	29.949 
09:05	71.6	71.6	71.6	92	69.1	0	1	90	0.00	29.949 
09:10	72.1	72.1	72.1	91	69.3	0	1	90	0.00	29.949 
09:15	72.7	72.7	72.7	89	69.3	0	1	90	0.00	29.947 
09:20	73.2	73.2	73.2	87	69.1	0	1	90	0.00	29.947 
09:25	73.5	73.5	73.5	85	68.7	0	2	90	0.00	29.947 
09:30	74.2	74.2	74.2	83	68.7	0	1	90	0.00	29.945 
09:35	74.7	74.7	74.7	80	68.1	0	1	90	0.00	29.945 
09:40	75.3	75.3	76.1	79	68.3	0	2	90	0.00	29.945 
09:45	75.8	75.8	76.9	78	68.4	0	1	90	0.00	29.944 
09:50	76.1	76.1	77.4	77	68.3	1	2	90	0.00	29.944 
09:55	76.5	76.5	78.0	75	68.0	1	3	90	0.00	29.944 
10:00	76.8	76.8	78.4	75	68.3	0	3	292	0.00	29.932 
10:05	77.2	77.2	79.0	75	68.6	0	1	292	0.00	29.932 
10:10	77.7	77.7	79.7	74	68.7	0	1	292	0.00	29.932 
10:15	78.1	78.1	80.2	72	68.3	2	3	292	0.00	29.941 
10:20	78.6	78.6	81.0	72	68.8	1	3	292	0.00	29.941 
10:25	78.8	78.8	81.1	70	68.2	1	4	315	0.00	29.941 
10:30	79.4	79.4	81.9	69	68.3	1	3	270	0.00	29.931 
10:35	79.8	79.8	82.5	69	68.7	1	3	270	0.00	29.931 
10:40	80.1	80.1	82.9	68	68.6	1	3	270	0.00	29.931 
10:45	80.5	80.5	83.2	66	68.1	1	4	248	0.00	29.927 
10:50	80.7	80.7	83.4	65	67.8	1	3	248	0.00	29.927 
10:55	80.7	80.7	83.4	65	67.8	2	4	248	0.00	29.927 
11:00	80.7	80.7	83.4	65	67.8	1	4	270	0.00	29.923 
11:05	80.9	80.9	83.7	65	68.0	1	4	225	0.00	29.923 
11:10	81.2	81.2	84.1	65	68.3	0	3	225	0.00	29.923 
11:15	81.8	81.8	84.9	64	68.4	1	3	292	0.00	29.921 
11:20	81.8	81.8	84.5	62	67.5	1	4	292	0.00	29.921 
11:25	82.0	82.0	85.0	63	68.1	2	4	270	0.00	29.921 
11:30	82.4	82.4	85.6	63	68.5	1	5	270	0.00	29.915 
11:35	82.8	82.8	86.1	62	68.4	1	5	90	0.00	29.915 
11:40	82.6	82.6	85.3	60	67.3	1	4	270	0.00	29.915 
11:45	82.6	82.6	85.5	61	67.8	1	4	270	0.00	29.912 
11:50	82.6	82.6	85.3	60	67.3	1	3	248	0.00	29.912 
11:55	82.6	82.6	85.5	61	67.8	1	2	248	0.00	29.912 
12:00	82.6	82.6	85.3	60	67.3	2	5	248	0.00	29.909 
12:05	82.8	82.8	85.8	61	67.9	1	3	248	0.00	29.909 
12:10	83.6	83.6	86.9	60	68.2	1	4	0	0.00	29.909 
12:15	84.3	84.3	87.5	58	67.9	1	3	45	0.00	29.905 
12:20	85.1	85.1	88.5	57	68.1	1	3	270	0.00	29.905 
12:25	84.7	84.7	87.6	56	67.2	1	4	270	0.00	29.905 
12:30	84.3	84.3	87.2	57	67.4	1	3	270	0.00	29.902 
12:35	84.9	84.9	88.2	57	67.9	1	3	292	0.00	29.902 
12:40	85.1	85.1	87.9	55	67.1	1	4	315	0.00	29.902 
12:45	85.5	85.5	88.3	54	66.9	1	5	315	0.00	29.894 
12:50	85.9	85.9	89.2	55	67.8	1	3	338	0.00	29.894 
12:55	86.3	86.3	89.3	53	67.1	1	5	270	0.00	29.894 
13:00	86.3	86.3	89.6	54	67.7	1	3	270	0.00	29.892 
13:05	86.7	86.7	89.9	53	67.5	1	3	315	0.00	29.892 
13:10	86.5	86.5	89.6	53	67.3	1	2	315	0.00	29.892 
13:15	86.3	86.3	88.9	52	66.6	1	4	90	0.00	29.888 
13:20	85.7	85.7	88.3	53	66.6	1	3	270	0.00	29.888 
13:25	85.3	85.3	87.7	53	66.2	1	3	270	0.00	29.888 
13:30	84.9	84.9	87.3	54	66.4	1	2	270	0.00	29.882 
13:35	85.5	85.5	87.4	51	65.3	1	2	270	0.00	29.882 
13:40	85.9	85.9	87.5	49	64.5	1	3	270	0.00	29.882 
13:45	86.1	86.1	88.0	50	65.3	1	5	270	0.00	29.879 
13:50	87.0	87.0	89.4	50	66.1	1	4	338	0.00	29.879 
13:55	87.6	87.6	90.0	49	66.0	1	3	270	0.00	29.879 
14:00	88.0	88.0	91.0	50	67.0	1	4	270	0.00	29.876 
14:05	88.4	88.4	91.3	49	66.8	1	3	292	0.00	29.876 
14:10	88.6	88.6	91.3	48	66.4	1	3	292	0.00	29.876 
14:15	88.2	88.2	91.0	49	66.6	1	4	292	0.00	29.876 
14:20	87.8	87.8	90.0	48	65.6	1	3	292	0.00	29.876 
14:25	88.0	88.0	90.7	49	66.4	1	3	292	0.00	29.876 
14:30	88.2	88.2	90.7	48	66.0	1	3	292	0.00	29.871 
14:35	88.6	88.6	91.0	47	65.7	1	4	292	0.00	29.871 
14:40	88.8	88.8	91.3	47	65.9	1	4	292	0.00	29.871 
14:45	88.8	88.8	90.9	46	65.3	1	3	292	0.00	29.865 
14:50	88.8	88.8	91.6	48	66.5	1	3	292	0.00	29.865 
14:55	89.5	89.5	93.2	49	67.8	0	2	292	0.00	29.865 
15:00	89.3	89.3	91.7	46	65.8	2	4	248	0.00	29.860 
15:05	89.0	89.0	92.4	49	67.3	1	5	338	0.00	29.860 
15:10	89.7	89.7	92.8	47	66.7	1	3	338	0.00	29.860 
15:15	89.7	89.7	92.4	46	66.1	1	4	270	0.00	29.850 
15:20	89.5	89.5	92.1	46	65.9	1	4	270	0.00	29.850 
15:25	89.7	89.7	92.0	45	65.5	1	4	270	0.00	29.850 
15:30	89.5	89.5	91.3	44	64.7	1	4	270	0.00	29.846 
15:35	89.0	89.0	91.6	47	66.1	1	4	270	0.00	29.846 
15:40	88.8	88.8	90.9	46	65.3	2	4	270	0.00	29.846 
15:45	88.8	88.8	91.3	47	65.9	1	3	270	0.00	29.838 
15:50	89.0	89.0	91.2	46	65.5	2	5	270	0.00	29.838 
15:55	89.0	89.0	91.2	46	65.5	1	3	270	0.00	29.838 
16:00	89.3	89.3	91.7	46	65.8	1	4	270	0.00	29.832 
16:05	88.8	88.8	91.6	48	66.5	1	3	315	0.00	29.832 
16:10	88.8	88.8	91.3	47	65.9	1	3	315	0.00	29.832 
16:15	89.0	89.0	91.2	46	65.5	2	4	248	0.00	29.831 
16:20	89.0	89.0	91.6	47	66.1	1	4	270	0.00	29.831 
16:25	89.0	89.0	91.2	46	65.5	1	3	270	0.00	29.831 
16:30	88.8	88.8	91.3	47	65.9	1	4	270	0.00	29.821 
16:35	89.3	89.3	92.5	48	67.0	0	2	270	0.00	29.821 
16:40	89.5	89.5	92.4	47	66.6	0	3	270	0.00	29.821 
16:45	89.5	89.5	92.4	47	66.6	0	3	270	0.00	29.815 
16:50	89.7	89.7	92.8	47	66.7	0	2	292	0.00	29.815 
16:55	89.5	89.5	92.4	47	66.6	1	3	22	0.00	29.815 
17:00	89.3	89.3	92.1	47	66.4	1	3	248	0.00	29.811 
17:05	89.3	89.3	92.1	47	66.4	1	3	248	0.00	29.811 
17:10	89.3	89.3	92.5	48	67.0	1	3	292	0.00	29.811 
17:15	89.0	89.0	91.6	47	66.1	1	4	292	0.00	29.807 
17:20	89.0	89.0	92.0	48	66.7	1	4	292	0.00	29.807 
17:25	89.0	89.0	92.0	48	66.7	1	4	270	0.00	29.807 
17:30	89.5	89.5	92.4	47	66.6	1	3	270	0.00	29.801 
17:35	89.7	89.7	92.4	46	66.1	1	3	315	0.00	29.801 
17:40	89.7	89.7	92.8	47	66.7	1	4	292	0.00	29.801 
17:45	89.7	89.7	92.4	46	66.1	1	3	292	0.00	29.798 
17:50	89.7	89.7	92.8	47	66.7	1	2	292	0.00	29.798 
17:55	89.5	89.5	92.4	47	66.6	1	3	292	0.00	29.798 
18:00	89.3	89.3	92.1	47	66.4	1	2	292	0.00	29.790 
18:05	89.3	89.3	92.1	47	66.4	1	3	292	0.00	29.790 
18:10	88.8	88.8	91.6	48	66.5	1	3	292	0.00	29.790 
18:15	88.6	88.6	91.7	49	67.0	1	2	68	0.00	29.785 
18:20	88.4	88.4	91.7	50	67.4	0	3	248	0.00	29.785 
18:25	88.4	88.4	91.3	49	66.8	1	5	248	0.00	29.785 
18:30	88.2	88.2	91.0	49	66.6	1	3	270	0.00	29.783 
18:35	88.0	88.0	91.0	50	67.0	0	2	270	0.00	29.783 
18:40	88.0	88.0	91.0	50	67.0	0	3	270	0.00	29.783 
18:45	87.8	87.8	90.7	50	66.8	1	3	270	0.00	29.780 
18:50	87.8	87.8	90.7	50	66.8	0	3	270	0.00	29.780 
18:55	87.8	87.8	90.7	50	66.8	0	3	315	0.00	29.780 
19:00	87.6	87.6	90.4	50	66.6	1	3	315	0.00	29.779 
19:05	87.4	87.4	90.1	50	66.4	1	3	315	0.00	29.779 
19:10	87.4	87.4	90.4	51	67.0	0	1	315	0.00	29.779 
19:15	87.2	87.2	90.1	51	66.8	0	2	315	0.00	29.779 
19:20	87.2	87.2	90.4	52	67.4	0	3	270	0.00	29.779 
19:25	87.0	87.0	90.1	52	67.2	0	2	270	0.00	29.779 
19:30	86.7	86.7	89.6	52	66.9	1	3	270	0.00	29.775 
19:35	86.5	86.5	89.6	53	67.3	0	0	---	0.00	29.775 
19:40	86.3	86.3	89.3	53	67.1	0	1	315	0.00	29.775 
19:45	85.9	85.9	88.9	54	67.3	0	0	---	0.00	29.771 
19:50	85.5	85.5	88.3	54	66.9	0	1	315	0.00	29.771 
19:55	85.3	85.3	88.2	55	67.3	0	1	315	0.00	29.771 
20:00	85.1	85.1	87.9	55	67.1	0	1	315	0.00	29.770 
20:05	84.9	84.9	87.9	56	67.4	0	0	---	0.00	29.770 
20:10	84.7	84.7	87.9	57	67.7	0	0	---	0.00	29.770 
20:15	84.3	84.3	87.5	58	67.9	0	0	---	0.00	29.771 
20:20	84.1	84.1	87.2	58	67.7	0	0	---	0.00	29.771 
20:25	83.8	83.8	86.9	59	67.9	0	0	---	0.00	29.771 
20:30	83.6	83.6	86.6	59	67.7	0	0	---	0.00	29.772 
20:35	83.2	83.2	86.2	60	67.8	0	0	---	0.00	29.772 
20:40	83.0	83.0	85.9	60	67.7	0	0	---	0.00	29.772 
20:45	82.8	82.8	85.8	61	67.9	0	0	---	0.00	29.777 
20:50	82.6	82.6	85.5	61	67.8	0	0	---	0.00	29.777 
20:55	82.6	82.6	85.7	62	68.2	0	0	---	0.00	29.777 
21:00	82.2	82.2	85.1	62	67.9	0	0	---	0.00	29.782 
21:05	82.0	82.0	85.0	63	68.1	0	0	---	0.00	29.782 
21:10	81.8	81.8	84.9	64	68.4	0	0	---	0.00	29.782 
21:15	81.6	81.6	84.6	64	68.2	0	0	---	0.00	29.782 
21:20	81.6	81.6	84.6	64	68.2	0	0	---	0.00	29.782 
21:25	81.6	81.6	84.7	65	68.7	0	0	---	0.00	29.782 
21:30	81.4	81.4	84.4	65	68.5	0	0	---	0.00	29.781 
21:35	81.4	81.4	84.4	65	68.5	0	1	315	0.00	29.781 
21:40	81.2	81.2	84.3	66	68.7	0	0	---	0.00	29.781 
21:45	81.1	81.1	84.3	67	69.1	0	0	---	0.00	29.778 
21:50	80.9	80.9	84.0	67	68.9	0	0	---	0.00	29.778 
21:55	80.7	80.7	83.8	68	69.1	0	0	---	0.00	29.778 
22:00	80.5	80.5	83.6	69	69.4	0	0	---	0.00	29.773 
22:05	80.5	80.5	83.6	69	69.4	0	0	---	0.00	29.773 
22:10	80.3	80.3	83.3	69	69.2	0	1	315	0.00	29.773 
22:15	80.3	80.3	83.4	70	69.6	0	0	---	0.00	29.764 
22:20	80.3	80.3	83.4	70	69.6	0	1	315	0.00	29.764 
22:25	80.3	80.3	83.4	70	69.6	0	0	---	0.00	29.764 
22:30	80.1	80.1	83.2	71	69.8	0	0	---	0.00	29.751 
22:35	80.1	80.1	83.2	71	69.8	0	1	315	0.00	29.751 
22:40	80.1	80.1	83.2	71	69.8	0	0	---	0.00	29.751 
22:45	79.9	79.9	82.9	71	69.6	0	1	315	0.00	29.733 
22:50	80.1	80.1	83.2	71	69.8	0	1	315	0.00	29.733 
22:55	80.1	80.1	83.2	71	69.8	0	1	315	0.00	29.733 
23:00	80.1	80.1	83.1	70	69.4	0	1	315	0.00	29.727 
23:05	80.3	80.3	83.4	70	69.6	0	1	315	0.00	29.727 
23:10	80.3	80.3	83.4	70	69.6	0	1	315	0.00	29.727 
23:15	80.5	80.5	83.6	69	69.4	0	1	315	0.00	29.732 
23:20	80.7	80.7	84.0	69	69.6	0	1	315	0.00	29.732 
23:25	80.9	80.9	84.3	69	69.8	0	1	315	0.00	29.732 
23:30	80.9	80.9	84.3	69	69.8	0	1	315	0.00	29.733 
23:35	81.1	81.1	84.6	69	69.9	0	1	315	0.00	29.733 
23:40	81.1	81.1	84.6	69	69.9	0	1	315	0.00	29.733 
23:45	81.1	81.1	84.6	69	69.9	0	2	315	0.00	29.730 
23:50	81.2	81.2	84.8	69	70.0	0	2	315	0.00	29.730 
23:55	81.2	81.2	84.8	69	70.0	0	1	315	0.00	29.730 

CoCoRaHS
IN-AL-39
A2 Web Hosting
Creative Commons License
GoDaddy
search engine by freefind advanced

loaded 2018-11-12 19:13:55 • last modified 2010-11-18 10:43:29
Privacy PolicyDisclaimer
• wx.awcolley.com is powered by PmWiki v.2002016 •
• all content (unless otherwise noted) © 2018 A W Colley